本田-ムルコス-パイドゥシャーコヴァー彗星

45P/Honda-Mrkos-Pajdusakova (2011)

English version
Home page
Updated on April 18, 2012

---------------------------------------------------------------------

・ プロフィール

・ 写真集

・ 軌道要素

Epoch 2011 Oct. 6.0 TT = JDT 2455840.5
T 2011 Sept. 28.78133 TT                                MPC
q   0.5296407            (2000.0)            P               Q
n   0.18779283     Peri.  326.24481     +0.56846550     -0.81935985
a   3.0200679      Node    89.00533     +0.77026055     +0.49840107
e   0.8246262      Incl.    4.25233     +0.28904267     +0.28327693
P   5.25
From 847 observations 2001 Apr. 4-2011 Nov. 3, mean residual 0".6.
     Nongravitational parameters A1 = +0.53, A2 = -0.0425.

・ 星図

・ 光度変化

        m1 = 14.2 + 5 logΔ + 23.0 log r  [ ,0]  (              〜2011年 9月28日)
        m1 = 12.0 + 5 logΔ + 15.0 log r  [0, ]  (2011年 9月28日〜              )

---------------------------------------------------------------------

軌道要素はM.P.E.C. 2011-V31に掲載されたものです。
星図は StellaNavigator Ver.2.0 for Windows (アストロアーツ編著 / アスキー出版局刊) で作成したものです。
光度グラフはComet for Windowsで作成したものです。

---------------------------------------------------------------------

Copyright(C) Seiichi Yoshida (comet@aerith.net). All rights reserved.